Wharton, TX

7:45 AM CDT on October 20, 2017 (GMT -0500)
Wharton Regional

Weather History for KARM - January, 2014

Change the Weather History Date:

Friday, January 3, 2014

  Actual Average (KPSX) Record (KPSX)
Temperature  
Mean Temperature 42 °F -  
Max Temperature 56 °F 61 °F 81 °F (2017)
Min Temperature 27 °F 44 °F 22 °F (1979)
Degree Days  
Heating Degree Days 24    
Moisture  
Dew Point 28 °F    
Average Humidity 66    
Maximum Humidity 91    
Minimum Humidity 27    
Precipitation  
Precipitation 0.00 in - - ()
Sea Level Pressure  
Sea Level Pressure 30.37 in    
Wind  
Wind Speed 5 mph (East)    
Max Wind Speed 9 mph    
Max Gust Speed -    
Visibility 10 miles    
Events      
Averages and records for this station are not official NWS values.
T = Trace of Precipitation, MM = Missing Value Source: NWS Daily Summary

Daily Weather History Graph

Daily Weather History Graph

Search for Another Location

Airport or City:

Trip Planner

Search our weather history database for the weather conditions in past years. The results will help you decide how hot, cold, wet, or windy it might be!

Date:

Astronomy

Jan. 03, 2014 Rise Set
Actual Time 7:19 AM CST 5:39 PM CST
Civil Twilight 6:53 AM CST 6:05 PM CST
Nautical Twilight 6:23 AM CST 6:34 PM CST
Astronomical Twilight 5:54 AM CST 7:03 PM CST
Moon 8:59 AM CST (1/3) 8:34 PM CST (1/3)
Length of Visible Light 11h 11m
Length of Day
10h 19m
Waxing Crescent, 8% of the Moon is Illuminated
Jan 3
Waxing Crescent
Jan 7
First Quarter
Jan 15
Full
Jan 23
Last Quarter
Jan 30
New

Hourly Weather History & Observations

Time (CST) Temp. Windchill Dew Point Humidity Pressure Visibility Wind Dir Wind Speed Gust Speed Precip Events Conditions
12:15 AM 33.3 °F 30.2 °F 27.5 °F 79% 30.46 in 10.0 mi NNW 3.5 mph - N/A   Clear
12:35 AM 32.9 °F 29.8 °F 27.3 °F 80% 30.46 in 10.0 mi NNW 3.5 mph - N/A   Clear
12:55 AM 32.2 °F 28.9 °F 27.0 °F 81% 30.46 in 10.0 mi NNW 3.5 mph - N/A   Clear
1:15 AM 31.6 °F 26.0 °F 26.4 °F 81% 30.46 in 10.0 mi NNW 5.8 mph - N/A   Clear
1:35 AM 30.7 °F 24.9 °F 26.1 °F 83% 30.46 in 10.0 mi NNW 5.8 mph - N/A   Clear
1:55 AM 31.5 °F 24.9 °F 26.6 °F 82% 30.46 in 10.0 mi NNW 6.9 mph - N/A   Clear
2:15 AM 30.9 °F 24.3 °F 26.4 °F 83% 30.46 in 10.0 mi North 6.9 mph - N/A   Clear
2:35 AM 31.5 °F 25.8 °F 26.2 °F 81% 30.45 in 10.0 mi North 5.8 mph - N/A   Clear
2:55 AM 32.0 °F 25.6 °F 26.1 °F 79% 30.45 in 10.0 mi North 6.9 mph - N/A   Clear
3:15 AM 31.3 °F 26.6 °F 25.7 °F 80% 30.45 in 10.0 mi North 4.6 mph - N/A   Clear
3:35 AM 30.2 °F 24.3 °F 25.3 °F 82% 30.45 in 10.0 mi North 5.8 mph - N/A   Clear
3:55 AM 29.8 °F 23.9 °F 25.0 °F 82% 30.44 in 10.0 mi NNE 5.8 mph - N/A   Clear
4:15 AM 30.0 °F 24.1 °F 25.3 °F 83% 30.44 in 10.0 mi North 5.8 mph - N/A   Clear
4:35 AM 30.0 °F 24.1 °F 24.8 °F 81% 30.44 in 10.0 mi North 5.8 mph - N/A   Clear
4:55 AM 29.8 °F 23.9 °F 24.6 °F 81% 30.44 in 10.0 mi North 5.8 mph - N/A   Clear
5:15 AM 29.3 °F 24.3 °F 24.4 °F 82% 30.44 in 10.0 mi NNE 4.6 mph - N/A   Clear
5:35 AM 29.1 °F 25.4 °F 24.1 °F 81% 30.44 in 10.0 mi NNE 3.5 mph - N/A   Clear
5:55 AM 29.1 °F - 23.9 °F 81% 30.44 in 10.0 mi Calm Calm - N/A   Clear
6:15 AM 28.4 °F 24.6 °F 23.9 °F 83% 30.44 in 10.0 mi NNE 3.5 mph - N/A   Clear
6:35 AM 27.3 °F 22.0 °F 23.7 °F 86% 30.45 in 10.0 mi NNE 4.6 mph - N/A   Clear
6:55 AM 27.5 °F 22.2 °F 23.7 °F 86% 30.45 in 10.0 mi NNE 4.6 mph - N/A   Clear
7:15 AM 27.0 °F 23.0 °F 23.5 °F 87% 30.45 in 10.0 mi NNE 3.5 mph - N/A   Clear
7:35 AM 28.0 °F - 24.1 °F 85% 30.46 in 10.0 mi Calm Calm - N/A   Clear
7:55 AM 28.9 °F - 23.9 °F 81% 30.46 in 10.0 mi Calm Calm - N/A   Clear
8:15 AM 31.6 °F - 26.6 °F 82% 30.47 in 10.0 mi Calm Calm - N/A   Clear
8:35 AM 34.0 °F 31.0 °F 26.6 °F 74% 30.47 in 10.0 mi NNE 3.5 mph - N/A   Clear
8:55 AM 35.8 °F 30.9 °F 26.4 °F 69% 30.47 in 10.0 mi NE 5.8 mph - N/A   Clear
9:15 AM 38.5 °F 32.7 °F 27.0 °F 63% 30.48 in 10.0 mi NE 8.1 mph - N/A   Clear
9:35 AM 40.5 °F 35.8 °F 27.3 °F 59% 30.48 in 10.0 mi ENE 6.9 mph - N/A   Clear
9:55 AM 41.9 °F 37.5 °F 27.1 °F 56% 30.48 in 10.0 mi East 6.9 mph - N/A   Clear
10:15 AM 43.7 °F 39.7 °F 26.6 °F 51% 30.48 in 10.0 mi ENE 6.9 mph - N/A   Clear
10:35 AM 45.5 °F 41.3 °F 27.0 °F 48% 30.48 in 10.0 mi East 8.1 mph - N/A   Clear
10:55 AM 46.6 °F - 26.8 °F 46% 30.47 in 10.0 mi East 6.9 mph - N/A   Clear
11:15 AM 48.0 °F - 26.1 °F 42% 30.46 in 10.0 mi East 5.8 mph - N/A   Clear
11:35 AM 48.7 °F - 25.5 °F 40% 30.45 in 10.0 mi East 5.8 mph - N/A   Clear
11:55 AM 50.4 °F - 25.2 °F 37% 30.43 in 10.0 mi Calm Calm - N/A   Clear
12:15 PM 51.8 °F - 25.7 °F 36% 30.42 in 10.0 mi East 4.6 mph - N/A   Clear
12:35 PM 52.7 °F - 24.8 °F 34% 30.40 in 10.0 mi SE 6.9 mph - N/A   Clear
12:55 PM 53.2 °F - 24.6 °F 33% 30.39 in 10.0 mi ESE 5.8 mph - N/A   Clear
1:15 PM 53.2 °F - 23.5 °F 32% 30.37 in 10.0 mi Calm Calm - N/A   Clear
1:35 PM 54.3 °F - 24.4 °F 31% 30.36 in 10.0 mi SE 3.5 mph - N/A   Clear
1:55 PM 54.7 °F - 24.6 °F 31% 30.34 in 10.0 mi ESE 4.6 mph - N/A   Clear
2:15 PM 55.6 °F - 24.4 °F 30% 30.33 in 10.0 mi East 3.5 mph - N/A   Clear
2:35 PM 55.8 °F - 23.9 °F 29% 30.32 in 10.0 mi SSE 6.9 mph - N/A   Clear
2:55 PM 55.9 °F - 22.5 °F 27% 30.31 in 10.0 mi SE 3.5 mph - N/A   Clear
3:15 PM 56.5 °F - 23.5 °F 28% 30.30 in 10.0 mi SSW 4.6 mph - N/A   Clear
3:35 PM 56.3 °F - 23.2 °F 28% 30.30 in 10.0 mi ESE 3.5 mph - N/A   Clear
3:55 PM 56.3 °F - 22.6 °F 27% 30.30 in 10.0 mi SSE 8.1 mph - N/A   Clear
4:15 PM 56.1 °F - 23.2 °F 28% 30.30 in 10.0 mi South 4.6 mph - N/A   Clear
4:35 PM 55.6 °F - 23.7 °F 29% 30.29 in 10.0 mi SSE 4.6 mph - N/A   Clear
4:55 PM 54.5 °F - 25.3 °F 32% 30.29 in 10.0 mi South 9.2 mph - N/A   Clear
5:15 PM 53.1 °F - 27.1 °F 37% 30.28 in 10.0 mi SSE 6.9 mph - N/A   Clear
5:35 PM 50.2 °F - 30.0 °F 46% 30.28 in 10.0 mi SSE 8.1 mph - N/A   Clear
5:55 PM 48.9 °F - 36.5 °F 62% 30.28 in 10.0 mi SSE 9.2 mph - N/A   Clear
6:15 PM 47.3 °F - 36.9 °F 67% 30.27 in 10.0 mi SSE 9.2 mph - N/A   Clear
6:35 PM 44.8 °F 41.0 °F 36.5 °F 73% 30.27 in 10.0 mi SE 6.9 mph - N/A   Clear
6:55 PM 44.6 °F 39.7 °F 36.5 °F 73% 30.28 in 10.0 mi SE 9.2 mph - N/A   Clear
7:15 PM 43.3 °F 39.2 °F 36.1 °F 76% 30.28 in 10.0 mi SE 6.9 mph - N/A   Clear
7:35 PM 42.6 °F 37.8 °F 36.3 °F 78% 30.28 in 10.0 mi SE 8.1 mph - N/A   Clear
7:55 PM 41.9 °F 37.5 °F 36.5 °F 81% 30.27 in 10.0 mi SE 6.9 mph - N/A   Clear
8:15 PM 41.7 °F 38.0 °F 36.1 °F 81% 30.27 in 10.0 mi ESE 5.8 mph - N/A   Clear
8:35 PM 40.1 °F 35.3 °F 35.6 °F 84% 30.27 in 10.0 mi ESE 6.9 mph - N/A   Clear
8:55 PM 40.3 °F 34.9 °F 36.0 °F 85% 30.26 in 10.0 mi ESE 8.1 mph - N/A   Clear
9:15 PM 41.0 °F 35.2 °F 36.5 °F 84% 30.25 in 10.0 mi ESE 9.2 mph - N/A   Clear
9:35 PM 40.3 °F 35.5 °F 36.3 °F 86% 30.25 in 10.0 mi ESE 6.9 mph - N/A   Clear
9:55 PM 39.9 °F 35.1 °F 36.5 °F 88% 30.23 in 10.0 mi ESE 6.9 mph - N/A   Clear
10:15 PM 39.4 °F 35.2 °F 36.0 °F 88% 30.24 in 10.0 mi ESE 5.8 mph - N/A   Clear
10:35 PM 39.4 °F 35.2 °F 36.1 °F 88% 30.24 in 10.0 mi ESE 5.8 mph - N/A   Clear
10:55 PM 39.6 °F 35.4 °F 36.5 °F 89% 30.23 in 10.0 mi ESE 5.8 mph - N/A   Clear
11:15 PM 39.6 °F 34.7 °F 36.7 °F 89% 30.22 in 10.0 mi ESE 6.9 mph - N/A   Clear
11:35 PM 39.0 °F 34.0 °F 36.3 °F 90% 30.20 in 10.0 mi East 6.9 mph - N/A   Clear
11:55 PM 40.1 °F 35.3 °F 37.6 °F 91% 30.19 in 10.0 mi ESE 6.9 mph - N/A   Clear